Location: Tel Aviv
(32.0670°N, 34.7670°E)
Time: 15:28:06
(UTC+02:00)

DUCHIFAT 1 - Visible Passes

Search period start: 22 February 2024 00:00
Search period end: 03 March 2024 00:00
Orbit: 546 x 566 km, 98.1° (Epoch: 21 February)

Date Brightness Start Highest point End Pass type
(mag) Time Alt. Az. Time Alt. Az. Time Alt. Az.
29 Feb ? 04:43:16 10° NNW 04:43:31 11° NNW 04:43:31 11° NNW visible
01 Mar ? 04:40:35 10° NNW 04:41:09 13° NNW 04:41:09 13° NNW visible
02 Mar ? 04:37:54 10° NNW 04:38:45 15° NNW 04:38:45 15° NNW visible
